Notices

What's New in latest Release from April 7th, 2021:

- Updated Glossary, including Speed of Maximum Gust, and Total Hourly Precipitation

- Updated national and regional climate services offices contacts and prices information

- Addition of station inventory lists for 1981-2010, 1971-2000, and 1961-1990 Normals.

If you haven't already, please take our survey and provide feedback about our website: https://eccc.sondage-survey.ca/f/LanguageSelection.aspx?s=442ca660-fcf1-47c0-95a9-59707d6fd709

Hourly Data Report for October 08, 2003

TORONTO CITY
ONTARIO

43°40'00.000" N
79°24'00.000" W
112.50 m
6158355
71508
XTO

Download Data

Hourly Data (October 2003)
Hourly Data Report for October 8, 2003
TIME
LST
Temp Definition
°C
Dew Point Definition
°C
Rel Hum Definition
%
Precip. Amount Definition
mm

Wind Dir Definition
10's deg

Wind Spd Definition
km/h
Visibility Definition
km
Stn Press Definition
kPa
Hmdx Definition


Wind Chill Definition


Weather Definition


00:00 8.2 6.1 87   LegendMM LegendMM LegendMM 100.51     LegendNANA
01:00 8.2 6.1 87   LegendMM LegendMM LegendMM 100.53     LegendNANA
02:00 8.4 6.7 89   LegendMM LegendMM LegendMM 100.51     LegendNANA
03:00 8.4 7.0 91   LegendMM LegendMM LegendMM 100.48     LegendNANA
04:00 8.7 7.4 92   LegendMM LegendMM LegendMM 100.47     LegendNANA
05:00 9.0 7.7 92   LegendMM LegendMM LegendMM 100.48     LegendNANA
06:00 8.5 7.2 92   LegendMM LegendMM LegendMM 100.46     LegendNANA
07:00 9.3 7.8 90   LegendMM LegendMM LegendMM 100.47     LegendNANA
08:00 11.8 9.5 86   LegendMM LegendMM LegendMM 100.49     LegendNANA
09:00 13.4 10.3 81   LegendMM LegendMM LegendMM 100.49     LegendNANA
10:00 16.4 10.9 70   LegendMM LegendMM LegendMM 100.48     LegendNANA
11:00 18.2 11.4 64   LegendMM LegendMM LegendMM 100.46     LegendNANA
12:00 20.4 12.3 60   LegendMM LegendMM LegendMM 100.44     LegendNANA
13:00 21.6 13.5 60   LegendMM LegendMM LegendMM 100.37 25   LegendNANA
14:00 23.3 14.0 56   LegendMM LegendMM LegendMM 100.33 27   LegendNANA
15:00 21.7 13.1 58   LegendMM LegendMM LegendMM 100.30 25   LegendNANA
16:00 20.7 12.9 61   LegendMM LegendMM LegendMM 100.31     LegendNANA
17:00 17.6 11.7 68   LegendMM LegendMM LegendMM 100.35     LegendNANA
18:00 18.1 14.0 77   LegendMM LegendMM LegendMM 100.38     LegendNANA
19:00 16.6 13.5 82   LegendMM LegendMM LegendMM 100.43     LegendNANA
20:00 15.8 13.5 86   LegendMM LegendMM LegendMM 100.46     LegendNANA
21:00 15.6 13.9 90   LegendMM LegendMM LegendMM 100.48     LegendNANA
22:00 15.4 13.5 88   LegendMM LegendMM LegendMM 100.53     LegendNANA
23:00 14.2 13.0 92   LegendMM LegendMM LegendMM 100.54     LegendNANA

Notes on Data Quality.

Legend

  • E = Estimated
  • M = Missing
  • NA = Not Available*
  • [empty] = Indicates an unobserved value
Date modified: